星链-32532 (STARLINK-32532)

导读 | 星芒AI

STARLINK-32532 是 SpaceX Starlink 项目中的一颗低轨通信卫星,属于第三代星链卫星群。该卫星于2024年发射,旨在为全球用户提供高速、低延迟的互联网服务。它运行在约550公里高度的近地轨道,采用先进推进系统和激光通信技术,提高网络效率与稳定性。作为星链计划的重要组成部分,STARLINK-32532 有助于扩展覆盖范围,特别是在偏远和网络基础设施薄弱地区。

基本信息
目录编号:
62156
目录名称:
STARLINK-32532
国际标识:
2024-224T
轨道中心:
EARTH
卫星名称:
星链-32532
卫星全名:
星链-32532 (STARLINK-32532)
卫星状态:
在轨 (已飞行339 天)
发射日期:
2024-11-30 UTC
国别 :
美国 (US)
星等 :
--
轨道信息
数据来源 国际轨道数据
星历时间: 2025-11-04T07:09:01+0800
9小时前
查看轨道信息
半长轴: 6861.135km
偏心率: 0.0001284
轨道倾角: 43.001°
近地点辐角 284.576°
升交点赤经 147.988°
平近点角 75.495°
近地点: 482.119km
远地点: 483.881km
周期: 94.266分钟
每日圈数: 15.275973
详细信息
固有亮度:
5
最大亮度:
2.5
卫星平台:
Starlink V1.0
覆盖范围:
全球
运营商:
太空探索技术公司
运营商所在国:
美国
制造商(研发单位):
太空探索技术公司
制造商所在国:
美国
使用方式:
暂无
卫星简介
Starlink 计划是 SpaceX 推出的全球卫星互联网项目,通过发射低轨道卫星,为全球尤其是偏远地区提供高速、低延迟的互联网服务。自 2019 年起,Starlink 已部署数千颗卫星,旨在缩小全球数字鸿沟,推动互联网普及。该项目还为军事、航空等行业提供通信支持,带来广泛经济效益。
2D轨道图
3D轨道图
轨道高度分析图
轨道倾角分析图
轨道综合分析图
查看轨道综合分析图